| time (UTC) | temp C | wind direction | speed KPH | gust KPH | rain 1hr cm | rain 24hr cm | rain mn cm | humidity % | barometer mb |
| 20260505214936 | 10 | 291 | 0.0 | 0.0 | 0.00 | 0.00 | 0.00 | 78 | 1013.0 |
| 20260505214435 | 9 | 291 | 0.0 | 0.0 | 0.00 | 0.00 | 0.00 | 78 | 1013.0 |
| 20260505213936 | 9 | 291 | 0.0 | 0.0 | 0.00 | 0.00 | 0.00 | 77 | 1013.1 |
| 20260505213436 | 9 | 291 | 0.0 | 0.0 | 0.00 | 0.00 | 0.00 | 77 | 1013.1 |
| 20260505212933 | 9 | 291 | 0.0 | 0.0 | 0.00 | 0.00 | 0.00 | 77 | 1013.1 |
| 20260505212432 | 9 | 291 | 0.0 | 0.0 | 0.00 | 0.00 | 0.00 | 77 | 1013.1 |
| 20260505211930 | 9 | 291 | 0.0 | 1.6 | 0.00 | 0.00 | 0.00 | 77 | 1013.1 |
| 20260505211429 | 9 | 291 | 0.0 | 1.6 | 0.00 | 0.00 | 0.00 | 77 | 1013.0 |
| 20260505210930 | 9 | 291 | 0.0 | 1.6 | 0.00 | 0.00 | 0.00 | 77 | 1013.1 |
| 20260505210430 | 9 | 292 | 0.0 | 0.0 | 0.00 | 0.00 | 0.00 | 77 | 1013.1 |
| 20260505205928 | 9 | 292 | 0.0 | 0.0 | 0.00 | 0.00 | 0.00 | 76 | 1013.1 |
| 20260505205421 | 9 | 292 | 0.0 | 0.0 | 0.00 | 0.00 | 0.00 | 76 | 1013.0 |
| 20260505204915 | 9 | 292 | 0.0 | 0.0 | 0.00 | 0.00 | 0.00 | 76 | 1013.1 |
| 20260505204411 | 9 | 292 | 0.0 | 0.0 | 0.00 | 0.00 | 0.00 | 75 | 1013.0 |
| 20260505203911 | 9 | 292 | 0.0 | 0.0 | 0.00 | 0.00 | 0.00 | 75 | 1013.0 |
| 20260505203411 | 9 | 292 | 0.0 | 0.0 | 0.00 | 0.00 | 0.00 | 74 | 1013.0 |
| 20260505202909 | 9 | 292 | 0.0 | 0.0 | 0.00 | 0.00 | 0.00 | 74 | 1012.8 |
| 20260505202408 | 10 | 292 | 0.0 | 0.0 | 0.00 | 0.00 | 0.00 | 74 | 1012.9 |
| 20260505201906 | 10 | 292 | 0.0 | 0.0 | 0.00 | 0.00 | 0.00 | 74 | 1012.8 |
| 20260505201403 | 10 | 292 | 0.0 | 0.0 | 0.00 | 0.00 | 0.00 | 73 | 1012.7 |
| 20260505200901 | 10 | 292 | 0.0 | 0.0 | 0.00 | 0.00 | 0.00 | 73 | 1012.7 |
| 20260505200359 | 10 | 292 | 0.0 | 1.6 | 0.00 | 0.00 | 0.00 | 72 | 1012.7 |
| 20260505195858 | 10 | 292 | 0.0 | 1.6 | 0.00 | 0.00 | 0.00 | 72 | 1012.8 |
| 20260505195356 | 10 | 291 | 0.0 | 1.6 | 0.00 | 0.00 | 0.00 | 72 | 1012.6 |
| 20260505194854 | 10 | 291 | 0.0 | 1.6 | 0.00 | 0.00 | 0.00 | 72 | 1012.4 |
| 20260505194353 | 11 | 292 | 0.0 | 1.6 | 0.00 | 0.00 | 0.00 | 71 | 1012.4 |
| 20260505193853 | 11 | 293 | 0.0 | 1.6 | 0.00 | 0.00 | 0.00 | 71 | 1012.4 |
| 20260505193353 | 11 | 292 | 0.0 | 1.6 | 0.00 | 0.00 | 0.00 | 70 | 1012.4 |
| 20260505192854 | 11 | 292 | 0.0 | 1.6 | 0.00 | 0.00 | 0.00 | 70 | 1012.3 |
| 20260505192353 | 11 | 293 | 0.0 | 1.6 | 0.00 | 0.00 | 0.00 | 70 | 1012.3 |
| 20260505192114 | 11 | 293 | 0.0 | 1.6 | 0.00 | 0.00 | 0.00 | 69 | 1012.3 |
| 20260505191353 | 11 | 294 | 0.0 | 1.6 | 0.00 | 0.00 | 0.00 | 69 | 1012.3 |
| 20260505190851 | 12 | 293 | 0.0 | 1.6 | 0.00 | 0.00 | 0.00 | 69 | 1012.3 |
| 20260505190351 | 12 | 295 | 0.0 | 8.0 | 0.00 | 0.00 | 0.00 | 68 | 1012.2 |
| 20260505185851 | 12 | 333 | 0.0 | 8.0 | 0.00 | 0.00 | 0.00 | 68 | 1012.1 |
| 20260505185351 | 12 | 293 | 0.0 | 4.8 | 0.00 | 0.00 | 0.00 | 68 | 1012.1 |
| 20260505184852 | 12 | 296 | 0.0 | 3.2 | 0.00 | 0.00 | 0.00 | 68 | 1012.2 |
| 20260505184351 | 12 | 293 | 0.0 | 3.2 | 0.00 | 0.00 | 0.00 | 67 | 1012.1 |
| 20260505183848 | 12 | 293 | 1.6 | 4.8 | 0.00 | 0.00 | 0.00 | 68 | 1012.1 |
| 20260505183350 | 12 | 296 | 0.0 | 4.8 | 0.00 | 0.00 | 0.00 | 68 | 1012.0 |
| 20260505182847 | 12 | 342 | 1.6 | 8.0 | 0.00 | 0.00 | 0.00 | 68 | 1012.0 |
| 20260505182348 | 12 | 293 | 1.6 | 8.0 | 0.00 | 0.00 | 0.00 | 68 | 1012.0 |
| 20260505181848 | 12 | 296 | 0.0 | 4.8 | 0.00 | 0.00 | 0.00 | 67 | 1011.9 |
| 20260505181348 | 13 | 294 | 0.0 | 3.2 | 0.00 | 0.00 | 0.00 | 67 | 1012.0 |
| 20260505180847 | 13 | 319 | 0.0 | 6.4 | 0.00 | 0.00 | 0.00 | 67 | 1011.9 |
| 20260505180350 | 13 | 359 | 1.6 | 6.4 | 0.00 | 0.00 | 0.00 | 66 | 1012.1 |
| 20260505175843 | 13 | 297 | 0.0 | 6.4 | 0.00 | 0.00 | 0.00 | 66 | 1011.9 |
| 20260505175341 | 13 | 293 | 1.6 | 6.4 | 0.00 | 0.00 | 0.00 | 66 | 1011.9 |
| 20260505174839 | 13 | 288 | 1.6 | 6.4 | 0.00 | 0.00 | 0.00 | 65 | 1012.0 |
| 20260505174335 | 13 | 295 | 1.6 | 6.4 | 0.00 | 0.00 | 0.00 | 64 | 1012.0 |
| 20260505173835 | 13 | 295 | 1.6 | 6.4 | 0.00 | 0.00 | 0.00 | 63 | 1011.9 |
| 20260505173335 | 13 | 299 | 0.0 | 3.2 | 0.00 | 0.00 | 0.00 | 62 | 1012.0 |
| 20260505172834 | 14 | 295 | 0.0 | 3.2 | 0.00 | 0.00 | 0.00 | 62 | 1012.0 |
| 20260505172333 | 14 | 295 | 0.0 | 4.8 | 0.00 | 0.00 | 0.00 | 62 | 1012.1 |
| 20260505171832 | 14 | 294 | 0.0 | 4.8 | 0.00 | 0.00 | 0.00 | 62 | 1012.1 |
| 20260505171333 | 14 | 57 | 0.0 | 4.8 | 0.00 | 0.00 | 0.00 | 61 | 1012.1 |
| 20260505170833 | 14 | 306 | 0.0 | 4.8 | 0.00 | 0.00 | 0.00 | 61 | 1012.1 |
| 20260505170336 | 14 | 287 | 0.0 | 4.8 | 0.00 | 0.00 | 0.00 | 61 | 1012.1 |
| 20260505165833 | 14 | 284 | 1.6 | 4.8 | 0.00 | 0.00 | 0.00 | 60 | 1012.2 |
| 20260505165332 | 14 | 280 | 1.6 | 4.8 | 0.00 | 0.00 | 0.00 | 60 | 1012.1 |
| 20260505164833 | 15 | 297 | 1.6 | 4.8 | 0.00 | 0.00 | 0.00 | 59 | 1012.1 |
| 20260505164331 | 15 | 309 | 1.6 | 4.8 | 0.00 | 0.00 | 0.00 | 60 | 1012.1 |
| 20260505163830 | 15 | 300 | 1.6 | 3.2 | 0.00 | 0.00 | 0.00 | 59 | 1012.1 |
| 20260505163330 | 15 | 295 | 1.6 | 3.2 | 0.00 | 0.00 | 0.00 | 58 | 1012.1 |
| 20260505162830 | 15 | 297 | 0.0 | 4.8 | 0.00 | 0.00 | 0.00 | 60 | 1012.1 |
| 20260505162330 | 15 | 293 | 0.0 | 4.8 | 0.00 | 0.00 | 0.00 | 60 | 1012.1 |
| 20260505161830 | 15 | 298 | 0.0 | 3.2 | 0.00 | 0.00 | 0.00 | 60 | 1012.0 |
| 20260505161331 | 15 | 296 | 0.0 | 3.2 | 0.00 | 0.00 | 0.00 | 59 | 1012.0 |
| 20260505160830 | 15 | 295 | 1.6 | 6.4 | 0.00 | 0.00 | 0.00 | 58 | 1012.0 |
| 20260505160331 | 15 | 303 | 0.0 | 6.4 | 0.00 | 0.00 | 0.00 | 58 | 1011.9 |
| 20260505153330 | 16 | 298 | 0.0 | 3.2 | 0.00 | 0.00 | 0.00 | 55 | 1012.0 |
| 20260505152831 | 16 | 293 | 0.0 | 4.8 | 0.00 | 0.00 | 0.00 | 56 | 1012.0 |
| 20260505152330 | 16 | 299 | 0.0 | 4.8 | 0.00 | 0.00 | 0.00 | 54 | 1012.0 |
| 20260505151836 | 16 | 293 | 0.0 | 4.8 | 0.00 | 0.00 | 0.00 | 53 | 1012.1 |
| 20260505151338 | 17 | 310 | 0.0 | 3.2 | 0.00 | 0.00 | 0.00 | 53 | 1012.1 |
| 20260505150829 | 17 | 302 | 0.0 | 3.2 | 0.00 | 0.00 | 0.00 | 51 | 1012.2 |
| 20260505150325 | 17 | 297 | 0.0 | 4.8 | 0.00 | 0.00 | 0.00 | 52 | 1012.2 |
| 20260505140307 | 17 | 298 | 0.0 | 4.8 | 0.00 | 0.00 | 0.00 | 57 | 1012.4 |
| 20260505130234 | 17 | 302 | 0.0 | 8.0 | 0.00 | 0.00 | 0.00 | 57 | 1012.8 |
| 20260505124731 | 16 | 296 | 1.6 | 6.4 | 0.00 | 0.00 | 0.00 | 59 | 1012.8 |
| 20260505124231 | 17 | 12 | 0.0 | 6.4 | 0.00 | 0.00 | 0.00 | 57 | 1012.8 |
| 20260505123730 | 16 | 297 | 0.0 | 6.4 | 0.00 | 0.00 | 0.00 | 60 | 1012.9 |
| 20260505123230 | 16 | 305 | 1.6 | 6.4 | 0.00 | 0.00 | 0.00 | 59 | 1012.8 |
| 20260505122730 | 16 | 349 | 1.6 | 9.7 | 0.00 | 0.00 | 0.00 | 60 | 1012.8 |
| 20260505122230 | 16 | 278 | 1.6 | 9.7 | 0.00 | 0.00 | 0.00 | 60 | 1012.9 |
| 20260505121730 | 16 | 266 | 1.6 | 9.7 | 0.00 | 0.00 | 0.00 | 60 | 1012.9 |
| 20260505121231 | 16 | 321 | 1.6 | 9.7 | 0.00 | 0.00 | 0.00 | 58 | 1012.9 |
| 20260505120731 | 16 | 286 | 1.6 | 4.8 | 0.00 | 0.00 | 0.00 | 60 | 1012.9 |
| 20260505120230 | 16 | 285 | 1.6 | 4.8 | 0.00 | 0.00 | 0.00 | 62 | 1012.8 |
| 20260505115733 | 16 | 288 | 1.6 | 6.4 | 0.00 | 0.00 | 0.00 | 60 | 1012.9 |
| 20260505115230 | 16 | 287 | 1.6 | 6.4 | 0.00 | 0.00 | 0.00 | 62 | 1012.9 |
| 20260505114731 | 16 | 359 | 1.6 | 9.7 | 0.00 | 0.00 | 0.00 | 61 | 1012.8 |
| 20260505114232 | 16 | 312 | 1.6 | 9.7 | 0.00 | 0.00 | 0.00 | 62 | 1012.9 |
| 20260505113733 | 16 | 294 | 1.6 | 9.7 | 0.00 | 0.00 | 0.00 | 60 | 1012.8 |
| 20260505113231 | 17 | 259 | 0.0 | 6.4 | 0.00 | 0.00 | 0.00 | 59 | 1012.8 |
| 20260505112730 | 16 | 103 | 1.6 | 12.9 | 0.00 | 0.00 | 0.00 | 61 | 1012.9 |
| 20260505112231 | 16 | 178 | 1.6 | 12.9 | 0.00 | 0.00 | 0.00 | 61 | 1013.0 |
| 20260505111730 | 16 | 235 | 1.6 | 9.7 | 0.00 | 0.00 | 0.00 | 62 | 1013.0 |
| 20260505111230 | 15 | 294 | 1.6 | 9.7 | 0.00 | 0.00 | 0.00 | 62 | 1013.1 |
| 20260505110731 | 15 | 286 | 1.6 | 8.0 | 0.00 | 0.00 | 0.00 | 62 | 1013.0 |
| 20260505110231 | 15 | 283 | 1.6 | 9.7 | 0.00 | 0.00 | 0.00 | 63 | 1013.1 |
| 20260505101736 | 14 | 309 | 1.6 | 11.3 | 0.00 | 0.00 | 0.00 | 65 | 1013.4 |
| 20260505101230 | 14 | 98 | 0.0 | 6.4 | 0.00 | 0.00 | 0.00 | 67 | 1013.5 |
| 20260505100729 | 13 | 232 | 1.6 | 4.8 | 0.00 | 0.00 | 0.00 | 68 | 1013.5 |
| 20260505100229 | 13 | 98 | 1.6 | 4.8 | 0.00 | 0.00 | 0.00 | 68 | 1013.5 |
| 20260505095729 | 13 | 94 | 1.6 | 4.8 | 0.00 | 0.00 | 0.00 | 69 | 1013.6 |
| 20260505095231 | 13 | 231 | 0.0 | 4.8 | 0.00 | 0.00 | 0.00 | 69 | 1013.6 |
| 20260505094731 | 13 | 232 | 0.0 | 3.2 | 0.00 | 0.00 | 0.00 | 69 | 1013.5 |
| 20260505094231 | 13 | 90 | 1.6 | 3.2 | 0.00 | 0.00 | 0.00 | 69 | 1013.6 |
| 20260505093729 | 12 | 212 | 1.6 | 6.4 | 0.00 | 0.00 | 0.00 | 69 | 1013.6 |
| 20260505093229 | 12 | 231 | 0.0 | 6.4 | 0.00 | 0.00 | 0.00 | 71 | 1013.5 |
| 20260505092729 | 12 | 231 | 0.0 | 6.4 | 0.00 | 0.00 | 0.00 | 70 | 1013.6 |
| 20260505092229 | 12 | 229 | 1.6 | 6.4 | 0.00 | 0.00 | 0.00 | 71 | 1013.6 |
| 20260505091729 | 12 | 89 | 1.6 | 4.8 | 0.00 | 0.00 | 0.00 | 71 | 1013.7 |
| 20260505091229 | 12 | 231 | 1.6 | 4.8 | 0.00 | 0.00 | 0.00 | 72 | 1013.6 |
| 20260505090725 | 12 | 91 | 1.6 | 4.8 | 0.00 | 0.00 | 0.00 | 71 | 1013.5 |
| 20260505090219 | 12 | 94 | 1.6 | 3.2 | 0.00 | 0.00 | 0.00 | 71 | 1013.6 |
| 20260505085713 | 12 | 231 | 0.0 | 3.2 | 0.00 | 0.00 | 0.00 | 71 | 1013.5 |
| 20260505085209 | 12 | 229 | 0.0 | 4.8 | 0.00 | 0.00 | 0.00 | 72 | 1013.6 |
| 20260505084707 | 12 | 205 | 1.6 | 4.8 | 0.00 | 0.00 | 0.00 | 72 | 1013.7 |
| 20260505084206 | 12 | 222 | 1.6 | 8.0 | 0.00 | 0.00 | 0.00 | 71 | 1013.7 |
| 20260505083705 | 12 | 101 | 1.6 | 8.0 | 0.00 | 0.00 | 0.00 | 71 | 1013.8 |
| 20260505083204 | 12 | 103 | 1.6 | 6.4 | 0.00 | 0.00 | 0.00 | 72 | 1013.7 |
| 20260505082705 | 12 | 229 | 1.6 | 9.7 | 0.00 | 0.00 | 0.00 | 75 | 1013.7 |
| 20260505082205 | 12 | 220 | 0.0 | 9.7 | 0.00 | 0.00 | 0.00 | 76 | 1013.8 |
| 20260505081705 | 11 | 228 | 1.6 | 8.0 | 0.00 | 0.00 | 0.00 | 77 | 1013.7 |
| 20260505081207 | 11 | 217 | 1.6 | 8.0 | 0.00 | 0.00 | 0.00 | 78 | 1013.7 |
| 20260505080705 | 11 | 229 | 1.6 | 8.0 | 0.00 | 0.00 | 0.00 | 79 | 1013.8 |
| 20260505080205 | 10 | 96 | 1.6 | 8.0 | 0.00 | 0.00 | 0.00 | 79 | 1013.7 |
| 20260505075705 | 10 | 259 | 0.0 | 3.2 | 0.00 | 0.00 | 0.00 | 80 | 1013.8 |
| 20260505075205 | 10 | 261 | 0.0 | 3.2 | 0.00 | 0.00 | 0.00 | 80 | 1013.9 |
| 20260505074705 | 10 | 260 | 0.0 | 3.2 | 0.00 | 0.00 | 0.00 | 82 | 1013.8 |
| 20260505074205 | 10 | 259 | 0.0 | 1.6 | 0.00 | 0.00 | 0.00 | 84 | 1013.9 |
| 20260505073705 | 10 | 260 | 0.0 | 3.2 | 0.00 | 0.00 | 0.00 | 86 | 1013.9 |
| 20260505073204 | 10 | 260 | 0.0 | 3.2 | 0.00 | 0.00 | 0.00 | 88 | 1014.0 |
| 20260505072706 | 10 | 259 | 0.0 | 3.2 | 0.00 | 0.00 | 0.00 | 90 | 1013.9 |
| 20260505072204 | 9 | 261 | 0.0 | 3.2 | 0.00 | 0.00 | 0.00 | 91 | 1014.0 |
| 20260505071705 | 9 | 261 | 0.0 | 3.2 | 0.00 | 0.00 | 0.00 | 91 | 1014.0 |
| 20260505071205 | 9 | 262 | 0.0 | 1.6 | 0.00 | 0.00 | 0.00 | 92 | 1014.0 |
| 20260505070705 | 9 | 259 | 0.0 | 1.6 | 0.00 | 0.00 | 0.00 | 91 | 1014.0 |
| 20260505070205 | 8 | 260 | 0.0 | 0.0 | 0.00 | 0.00 | 0.00 | 92 | 1014.0 |
| 20260505065705 | 8 | 260 | 0.0 | 1.6 | 0.00 | 0.00 | 0.00 | 92 | 1014.0 |
| 20260505065207 | 8 | 261 | 0.0 | 1.6 | 0.00 | 0.00 | 0.00 | 91 | 1014.0 |
| 20260505064707 | 9 | 262 | 0.0 | 1.6 | 0.00 | 0.00 | 0.00 | 92 | 1014.0 |
| 20260505064207 | 8 | 261 | 0.0 | 1.6 | 0.00 | 0.00 | 0.00 | 93 | 1014.0 |
| 20260505063707 | 8 | 261 | 0.0 | 1.6 | 0.00 | 0.00 | 0.00 | 93 | 1014.0 |
| 20260505063207 | 8 | 261 | 0.0 | 0.0 | 0.00 | 0.00 | 0.00 | 92 | 1014.0 |
| 20260505062705 | 8 | 261 | 0.0 | 1.6 | 0.00 | 0.00 | 0.00 | 92 | 1013.9 |
| 20260505062204 | 8 | 261 | 0.0 | 1.6 | 0.00 | 0.00 | 0.00 | 92 | 1013.8 |
| 20260505061702 | 8 | 261 | 0.0 | 1.6 | 0.00 | 0.00 | 0.00 | 92 | 1013.8 |
| 20260505061201 | 8 | 261 | 0.0 | 1.6 | 0.00 | 0.00 | 0.00 | 92 | 1013.8 |
| 20260505060659 | 8 | 261 | 0.0 | 0.0 | 0.00 | 0.00 | 0.00 | 92 | 1013.8 |
| 20260505060159 | 7 | 261 | 0.0 | 1.6 | 0.00 | 0.00 | 0.00 | 92 | 1013.8 |
| 20260505055657 | 7 | 261 | 0.0 | 1.6 | 0.00 | 0.00 | 0.00 | 92 | 1013.8 |
| 20260505055155 | 7 | 261 | 0.0 | 1.6 | 0.00 | 0.00 | 0.00 | 92 | 1013.6 |
| 20260505054654 | 7 | 262 | 0.0 | 1.6 | 0.00 | 0.00 | 0.00 | 92 | 1013.7 |
| 20260505054154 | 7 | 261 | 0.0 | 1.6 | 0.00 | 0.00 | 0.00 | 92 | 1013.7 |
| 20260505053654 | 7 | 261 | 0.0 | 1.6 | 0.00 | 0.00 | 0.00 | 92 | 1013.7 |
| 20260505053152 | 7 | 262 | 0.0 | 0.0 | 0.00 | 0.00 | 0.00 | 92 | 1013.7 |
| 20260505052650 | 7 | 262 | 0.0 | 0.0 | 0.00 | 0.00 | 0.00 | 92 | 1013.6 |
| 20260505052148 | 6 | 262 | 0.0 | 0.0 | 0.00 | 0.00 | 0.00 | 92 | 1013.6 |
| 20260505051645 | 6 | 262 | 0.0 | 0.0 | 0.00 | 0.00 | 0.00 | 92 | 1013.6 |
| 20260505051144 | 6 | 262 | 0.0 | 0.0 | 0.00 | 0.00 | 0.00 | 92 | 1013.6 |
| 20260505050640 | 6 | 262 | 0.0 | 1.6 | 0.00 | 0.00 | 0.00 | 92 | 1013.7 |
| 20260505050139 | 6 | 262 | 0.0 | 1.6 | 0.00 | 0.00 | 0.00 | 92 | 1013.5 |
| 20260505041620 | 7 | 262 | 0.0 | 0.0 | 0.00 | 0.00 | 0.00 | 91 | 1013.9 |
| 20260505041119 | 7 | 262 | 0.0 | 0.0 | 0.00 | 0.00 | 0.00 | 91 | 1013.8 |
| 20260505040619 | 7 | 262 | 0.0 | 0.0 | 0.00 | 0.00 | 0.00 | 91 | 1013.9 |
| 20260505040117 | 7 | 262 | 0.0 | 0.0 | 0.00 | 0.00 | 0.00 | 91 | 1013.9 |
| 20260505035615 | 7 | 262 | 0.0 | 1.6 | 0.00 | 0.00 | 0.00 | 91 | 1014.0 |
| 20260505035114 | 7 | 262 | 0.0 | 1.6 | 0.00 | 0.00 | 0.00 | 91 | 1014.0 |
| 20260505034611 | 7 | 262 | 0.0 | 0.0 | 0.00 | 0.00 | 0.00 | 91 | 1013.9 |
| 20260505034109 | 7 | 262 | 0.0 | 0.0 | 0.00 | 0.00 | 0.00 | 90 | 1013.8 |
| 20260505033607 | 8 | 262 | 0.0 | 0.0 | 0.00 | 0.00 | 0.00 | 90 | 1013.8 |
| 20260505033105 | 8 | 262 | 0.0 | 0.0 | 0.00 | 0.00 | 0.00 | 90 | 1013.8 |
| 20260505032603 | 8 | 262 | 0.0 | 0.0 | 0.00 | 0.00 | 0.00 | 90 | 1013.7 |
| 20260505032105 | 8 | 262 | 0.0 | 0.0 | 0.00 | 0.00 | 0.00 | 90 | 1013.7 |
| 20260505031602 | 8 | 262 | 0.0 | 1.6 | 0.00 | 0.00 | 0.00 | 90 | 1013.7 |
| 20260505031102 | 8 | 262 | 0.0 | 1.6 | 0.00 | 0.00 | 0.00 | 90 | 1013.7 |
| 20260505030603 | 8 | 262 | 0.0 | 1.6 | 0.00 | 0.00 | 0.00 | 90 | 1013.7 |
| 20260505030104 | 8 | 262 | 0.0 | 0.0 | 0.00 | 0.00 | 0.00 | 90 | 1013.7 |
| 20260505025603 | 8 | 262 | 0.0 | 1.6 | 0.00 | 0.00 | 0.00 | 90 | 1013.6 |
| 20260505025103 | 8 | 262 | 0.0 | 1.6 | 0.00 | 0.00 | 0.00 | 90 | 1013.6 |
| 20260505024603 | 8 | 262 | 0.0 | 1.6 | 0.00 | 0.00 | 0.00 | 90 | 1013.7 |
| 20260505024057 | 8 | 262 | 0.0 | 1.6 | 0.00 | 0.00 | 0.00 | 90 | 1013.7 |
| 20260505023551 | 9 | 262 | 0.0 | 1.6 | 0.00 | 0.00 | 0.00 | 90 | 1013.7 |
| 20260505023045 | 9 | 262 | 0.0 | 1.6 | 0.00 | 0.00 | 0.00 | 90 | 1013.7 |
| 20260505022539 | 9 | 262 | 0.0 | 1.6 | 0.00 | 0.00 | 0.00 | 90 | 1013.8 |
| 20260505022033 | 9 | 262 | 0.0 | 0.0 | 0.00 | 0.00 | 0.00 | 89 | 1013.9 |
| 20260505021534 | 9 | 262 | 0.0 | 0.0 | 0.00 | 0.00 | 0.00 | 89 | 1013.9 |
| 20260505021034 | 9 | 262 | 0.0 | 0.0 | 0.00 | 0.00 | 0.00 | 89 | 1013.9 |
| 20260505020536 | 10 | 262 | 0.0 | 0.0 | 0.00 | 0.00 | 0.00 | 89 | 1013.9 |
| 20260505020031 | 10 | 262 | 0.0 | 0.0 | 0.00 | 0.00 | 0.00 | 89 | 1014.0 |
| 20260505015531 | 10 | 262 | 0.0 | 1.6 | 0.00 | 0.00 | 0.00 | 89 | 1014.1 |
| 20260505015031 | 10 | 262 | 0.0 | 1.6 | 0.00 | 0.00 | 0.00 | 89 | 1014.1 |
| 20260505014531 | 10 | 262 | 0.0 | 1.6 | 0.00 | 0.00 | 0.00 | 89 | 1014.1 |
| 20260505014032 | 10 | 262 | 0.0 | 1.6 | 0.00 | 0.00 | 0.00 | 89 | 1014.1 |
| 20260505013531 | 10 | 262 | 0.0 | 1.6 | 0.00 | 0.00 | 0.00 | 89 | 1013.9 |
| 20260505013032 | 10 | 262 | 0.0 | 1.6 | 0.00 | 0.00 | 0.00 | 89 | 1014.1 |
| 20260505012530 | 10 | 262 | 0.0 | 1.6 | 0.00 | 0.00 | 0.00 | 89 | 1014.1 |
| 20260505012032 | 10 | 262 | 0.0 | 1.6 | 0.00 | 0.00 | 0.00 | 89 | 1014.0 |
| 20260505011531 | 10 | 262 | 0.0 | 1.6 | 0.00 | 0.00 | 0.00 | 89 | 1014.1 |
| 20260505011031 | 10 | 262 | 0.0 | 0.0 | 0.00 | 0.00 | 0.00 | 89 | 1014.2 |
| 20260505010531 | 10 | 262 | 0.0 | 0.0 | 0.00 | 0.00 | 0.00 | 89 | 1014.1 |
| 20260505010035 | 10 | 262 | 0.0 | 0.0 | 0.00 | 0.00 | 0.00 | 88 | 1014.2 |
| 20260505005537 | 10 | 262 | 0.0 | 0.0 | 0.00 | 0.00 | 0.00 | 88 | 1014.2 |
| 20260505005033 | 10 | 262 | 0.0 | 0.0 | 0.00 | 0.00 | 0.00 | 88 | 1014.2 |
| 20260505004529 | 10 | 262 | 0.0 | 0.0 | 0.00 | 0.00 | 0.00 | 88 | 1014.3 |
| 20260505004022 | 10 | 262 | 0.0 | 0.0 | 0.00 | 0.00 | 0.00 | 88 | 1014.4 |
| 20260505003516 | 10 | 262 | 0.0 | 0.0 | 0.00 | 0.00 | 0.00 | 88 | 1014.4 |
| 20260505003013 | 10 | 262 | 0.0 | 0.0 | 0.00 | 0.00 | 0.00 | 88 | 1014.4 |
| 20260505002511 | 10 | 262 | 0.0 | 1.6 | 0.00 | 0.00 | 0.00 | 88 | 1014.5 |
| 20260505002009 | 10 | 262 | 0.0 | 1.6 | 0.00 | 0.00 | 0.00 | 88 | 1014.4 |
| 20260505001509 | 10 | 262 | 0.0 | 1.6 | 0.00 | 0.00 | 0.00 | 88 | 1014.4 |
| 20260505001015 | 10 | 262 | 0.0 | 1.6 | 0.00 | 0.00 | 0.00 | 88 | 1014.5 |
| 20260505000508 | 10 | 261 | 0.0 | 1.6 | 0.00 | 0.00 | 0.00 | 88 | 1014.5 |
| 20260505000007 | 10 | 262 | 0.0 | 1.6 | 0.00 | 0.00 | 0.00 | 87 | 1014.6 |
| 20260504235505 | 10 | 261 | 0.0 | 1.6 | 0.00 | 0.00 | 0.00 | 87 | 1014.5 |
| 20260504235006 | 10 | 262 | 0.0 | 1.6 | 0.00 | 0.00 | 0.00 | 87 | 1014.6 |
| 20260504234004 | 11 | 261 | 0.0 | 1.6 | 0.00 | 0.00 | 0.00 | 87 | 1014.5 |
| 20260504233502 | 11 | 261 | 0.0 | 1.6 | 0.00 | 0.00 | 0.00 | 86 | 1014.6 |
| 20260504233003 | 11 | 261 | 0.0 | 1.6 | 0.00 | 0.00 | 0.00 | 86 | 1014.5 |
| 20260504232502 | 11 | 261 | 0.0 | 1.6 | 0.00 | 0.00 | 0.00 | 86 | 1014.5 |
| 20260504232004 | 11 | 261 | 0.0 | 3.2 | 0.00 | 0.00 | 0.00 | 86 | 1014.5 |
| 20260504231505 | 11 | 260 | 1.6 | 8.0 | 0.00 | 0.00 | 0.00 | 86 | 1014.6 |
| 20260504231003 | 11 | 255 | 1.6 | 8.0 | 0.00 | 0.00 | 0.00 | 86 | 1014.5 |
| 20260504230457 | 11 | 255 | 1.6 | 4.8 | 0.00 | 0.00 | 0.00 | 87 | 1014.4 |
| 20260504225957 | 11 | 256 | 0.0 | 4.8 | 0.00 | 0.00 | 0.00 | 87 | 1014.5 |
| 20260504225458 | 11 | 256 | 0.0 | 3.2 | 0.00 | 0.00 | 0.00 | 87 | 1014.5 |
| 20260504224958 | 11 | 256 | 0.0 | 4.8 | 0.00 | 0.00 | 0.00 | 87 | 1014.6 |
| 20260504224456 | 11 | 255 | 0.0 | 4.8 | 0.00 | 0.00 | 0.00 | 87 | 1014.7 |
| 20260504223954 | 11 | 256 | 0.0 | 1.6 | 0.00 | 0.00 | 0.00 | 87 | 1014.6 |
| 20260504223451 | 11 | 256 | 0.0 | 3.2 | 0.00 | 0.00 | 0.00 | 86 | 1014.6 |
| 20260504222949 | 11 | 256 | 0.0 | 4.8 | 0.00 | 0.00 | 0.00 | 86 | 1014.8 |
| 20260504222448 | 11 | 255 | 0.0 | 4.8 | 0.00 | 0.00 | 0.00 | 86 | 1014.7 |
| 20260504221946 | 11 | 256 | 0.0 | 4.8 | 0.00 | 0.00 | 0.00 | 86 | 1014.8 |
| 20260504221445 | 11 | 255 | 0.0 | 3.2 | 0.00 | 0.00 | 0.00 | 86 | 1014.9 |
| 20260504220945 | 11 | 255 | 0.0 | 3.2 | 0.00 | 0.00 | 0.00 | 86 | 1014.9 |
| 20260504220443 | 11 | 255 | 0.0 | 3.2 | 0.00 | 0.00 | 0.00 | 86 | 1014.9 |
| 20260504215944 | 11 | 255 | 0.0 | 1.6 | 0.00 | 0.00 | 0.00 | 86 | 1014.9 |
| 20260504215443 | 11 | 255 | 0.0 | 1.6 | 0.00 | 0.00 | 0.00 | 86 | 1014.9 |